Preview of NWS' New Version of Forecast
This preview is not operational and should not be used for support decisions.

Regional Weather Roundup (RWR)

Issued by National Weather Service (NWS)

                            
000
ASUS46 KPQR 231910
RWROR 

OREGON REGIONAL WEATHER ROUNDUP
NATIONAL WEATHER SERVICE PORTLAND OR
1200 PM PDT SAT MAR 23 2019

NOTE: "FAIR" INDICATES FEW OR NO CLOUDS BELOW 12,000 FEET WITH
NO SIGNIFICANT WEATHER AND/OR OBSTRUCTIONS TO VISIBILITY.

ORZ001>013-232000-
NORTHWEST OREGON

  
CITY           SKY/WX    TMP DP  RH WIND       PRES   REMARKS
ASTORIA        CLOUDY    50  45  83 N8        30.19R                  
TILLAMOOK      CLOUDY    52  45  76 CALM      30.20S                  
NEWPORT        PTSUNNY   52  46  82 SW9       30.22R                  
PORTLAND       LGT RAIN  52  47  83 E6        30.20R                  
VANCOUVER WA   LGT RAIN  50  46  86 E6        30.19S                  
SCAPPOOSE      CLOUDY    54  46  74 SE5       30.19S                  
HILLSBORO      PTSUNNY   51  44  77 W3        30.19S                  
AURORA         PTSUNNY   53  46  77 VRB3      30.20S                  
MCMINNVILLE    PTSUNNY   51  46  83 CALM      30.19S                  
SALEM          PTSUNNY   53  45  74 S5        30.18S                  
CORVALLIS      PTSUNNY   52  47  83 SE7       30.19S                  
EUGENE         PTSUNNY   53  45  74 SE6       30.19S                  
$$

ORZ021-028-232000-
SOUTHWEST OREGON

  
CITY           SKY/WX    TMP DP  RH WIND       PRES   REMARKS
NORTH BEND     LGT RAIN  53  48  83 SW6       30.22R                  
BROOKINGS      PTSUNNY   53  44  71 SE3       30.21R                  
ROSEBURG       PTSUNNY   50  44  80 CALM      30.19S                  
SEXTON SUMMIT  CLOUDY    38  37  97 VRB5      30.12S FOG              
GRANTS PASS    PTSUNNY   48  45  87 SW3       30.20F                  
MEDFORD        LGT RAIN  48  42  80 VRB3      30.18R                  
$$

ORZ014>016-041-232000-
COLUMBIA GORGE

  
CITY           SKY/WX    TMP DP  RH WIND       PRES   REMARKS
TROUTDALE      CLOUDY    53  46  77 NE3       30.19S                  
HOOD RIVER     PTSUNNY   55  39  54 W9        30.17S                  
THE DALLES     PTSUNNY   57  40  52 NW15      30.15S                  
$$

ORZ029>031-041-044-049-050-061>064-502-503-505>511-232000-
EASTERN OREGON

  
CITY           SKY/WX    TMP DP  RH WIND       PRES   REMARKS
MADRAS         CLOUDY    45  36  70 N3        30.15S                  
REDMOND        CLOUDY    47  32  56 W7        30.11S                  
BEND           CLOUDY    45  32  61 NW6       30.12S                  
PRINEVILLE     CLOUDY    45  34  65 NW6       30.11S                  
KLAMATH FALLS  CLOUDY    41  35  79 CALM      30.08F                  
LAKEVIEW       LGT SNOW  34  34 100 CALM      30.07S VSB 1            
HERMISTON      MOSUNNY   59  38  45 NW8       30.11F                  
PENDLETON      CLOUDY    55  37  50 W10       30.11F                  
JOHN DAY       CLOUDY    49  37  64 W8        30.06F                  
MEACHAM        LGT RAIN  41  35  79 CALM      30.10S                  
LA GRANDE      LGT RAIN  47  41  80 W9        30.11S                  
BAKER CITY     CLOUDY    50  39  66 NW14      30.07F                  
BURNS          CLOUDY    44  34  67 W7        30.05F                  
ROME             N/A     44  39  82 NE5       30.01F                  
ONTARIO        PTSUNNY   58  39  49 CALM      30.04F                  
$$